STARLINK-34488 (64604 NORAD) Tracking and Keplerian Element Data

This shows tracking and keplerian element data for the satellite.

Feedback or suggestion? Click here.




ElementValue
Catalog64604
NameSTARLINK-34488
Epoch Orbit2844
Epoch Day353.54557492
Epoch Year2025
RAAN348.984
Inclination53.1602
Eccentricity0.000139
Argument of Perigee65.3237
Mean Anonmoly294.7913
Mean Motion15.39590384
Decay Rate0.00042684
L11 64604U 25137L 25353.54557492 .00042684 00000+0 10721-2 0 9993
L22 64604 53.1602 348.9840 0001390 65.3237 294.7913 15.39590384 28444



Live tracking and technical data element details for STARLINK-34488 (NORAD 64604). STARLINK-34488 can be tracked NOW for your location showing map with azimuth and elevation plus other details from your city location.







IsCatalogInMostPopularTable: catalog: 64604, numindb: 10
Update: records affected: 1



GetName: 64604 STARLINK-34488

Hit Count: updated at: Thu, 16 Apr 2026 05:25:32 GMT